When you browse on this site, cookies collect data to enhance your experience and personalize the content and advertising you see.
Visit our Privacy Policy to learn more. By continuing to use the site, you agree to this use of cookies and data.
  • En España
  • Lista de países
  • Para 7 días
  • Temperatura del agua
  • Mapa Satelital
  • El tiempo en el mapa
  • Informadores
  • user-avatar
    Iniciar sesión

    Tiempo cada hora Banja Luka

    Hoy, 18 Enero, Viernes

    Tiempo Temperatura Precipitaciones Viento Presión Humedad
    00:00 +3°C° 0 mm 4 mps 712 mmHg 82%
    01:00 +3°C° 0 mm 4 mps 711 mmHg 82%
    02:00 +3°C° 0 mm 4 mps 711 mmHg 83%
    03:00 +3°C° 0 mm 3 mps 711 mmHg 84%
    04:00 +3°C° 0 mm 3 mps 711 mmHg 85%
    05:00 +3°C° 0 mm 3 mps 711 mmHg 87%
    06:00 +3°C° 0 mm 3 mps 711 mmHg 88%
    07:00 +4°C° 0 mm 2 mps 710 mmHg 90%
    08:00 +4°C° 0.4 mm 2 mps 711 mmHg 92%
    09:00 +4°C° 0.4 mm 2 mps 711 mmHg 94%
    10:00 +5°C° 0.4 mm 1 mps 712 mmHg 96%
    11:00 +3°C° 2.3 mm 2 mps 712 mmHg 96%
    12:00 +2°C° 2.3 mm 2 mps 713 mmHg 96%
    13:00 -1°C° 2.3 mm 3 mps 713 mmHg 96%
    14:00 -1°C° 1 mm 2 mps 713 mmHg 96%
    15:00 -2°C° 1 mm 2 mps 714 mmHg 96%
    16:00 0°C° 1 mm 1 mps 714 mmHg 96%
    17:00 0°C° 1 mm 1 mps 714 mmHg 96%
    18:00 0°C° 1 mm 1 mps 715 mmHg 97%
    19:00 -1°C° 1 mm 0 mps 715 mmHg 97%
    20:00 0°C° 0.6 mm 1 mps 715 mmHg 97%
    21:00 0°C° 0.6 mm 1 mps 715 mmHg 97%
    22:00 0°C° 0.6 mm 1 mps 715 mmHg 97%
    23:00 -1°C° 0.4 mm 1 mps 715 mmHg 97%

    Mañana, 19 Enero, Sábado

    Tiempo Temperatura Precipitaciones Viento Presión Humedad
    00:00 -1°C° 0.4 mm 1 mps 715 mmHg 98%
    01:00 -1°C° 0.4 mm 1 mps 715 mmHg 98%
    02:00 -1°C° 0.3 mm 1 mps 715 mmHg 98%
    03:00 -1°C° 0.3 mm 1 mps 715 mmHg 98%
    04:00 -1°C° 0.3 mm 1 mps 715 mmHg 97%
    05:00 -1°C° 0.1 mm 1 mps 715 mmHg 97%
    06:00 -1°C° 0.1 mm 1 mps 715 mmHg 97%
    07:00 -1°C° 0.1 mm 1 mps 715 mmHg 97%
    08:00 -1°C° 0.2 mm 1 mps 715 mmHg 96%
    09:00 -1°C° 0.2 mm 1 mps 715 mmHg 95%
    10:00 0°C° 0.2 mm 1 mps 715 mmHg 94%
    11:00 0°C° 0.3 mm 1 mps 715 mmHg 94%
    12:00 +1°C° 0.3 mm 1 mps 714 mmHg 94%
    13:00 +1°C° 0.3 mm 1 mps 714 mmHg 94%
    14:00 +1°C° 0.5 mm 1 mps 713 mmHg 95%
    15:00 +1°C° 0.5 mm 1 mps 713 mmHg 96%
    16:00 0°C° 0.5 mm 1 mps 713 mmHg 97%
    17:00 0°C° 0.1 mm 1 mps 713 mmHg 97%
    18:00 0°C° 0.1 mm 1 mps 713 mmHg 97%
    19:00 -1°C° 0.1 mm 1 mps 712 mmHg 98%
    20:00 -1°C° 0.3 mm 0 mps 712 mmHg 97%
    21:00 -1°C° 0.3 mm 0 mps 712 mmHg 97%
    22:00 -1°C° 0.3 mm 0 mps 712 mmHg 97%
    23:00 -1°C° 0.4 mm 0 mps 712 mmHg 97%

    Pasado mañana, 20 Enero, Domingo

    Tiempo Temperatura Precipitaciones Viento Presión Humedad
    00:00 -1°C° 0.4 mm 0 mps 712 mmHg 97%
    01:00 -1°C° 0.4 mm 0 mps 712 mmHg 97%
    02:00 -2°C° 0.1 mm 0 mps 711 mmHg 97%
    03:00 -2°C° 0.1 mm 0 mps 711 mmHg 97%
    04:00 -2°C° 0.1 mm 0 mps 711 mmHg 97%
    05:00 -2°C° 0 mm 0 mps 711 mmHg 96%
    06:00 -2°C° 0 mm 0 mps 711 mmHg 96%
    07:00 -2°C° 0 mm 0 mps 711 mmHg 95%
    08:00 -1°C° 0 mm 0 mps 712 mmHg 95%
    09:00 0°C° 0 mm 0 mps 712 mmHg 95%
    10:00 +1°C° 0 mm 0 mps 713 mmHg 95%
    11:00 +2°C° 0 mm 0 mps 713 mmHg 96%
    12:00 +2°C° 0 mm 0 mps 713 mmHg 97%
    13:00 +3°C° 0 mm 0 mps 713 mmHg 98%
    14:00 +3°C° 0 mm 0 mps 713 mmHg 98%
    15:00 +2°C° 0 mm 0 mps 713 mmHg 98%
    16:00 +2°C° 0 mm 0 mps 713 mmHg 98%
    17:00 +1°C° 0 mm 0 mps 713 mmHg 97%
    18:00 +1°C° 0 mm 0 mps 713 mmHg 96%
    19:00 0°C° 0 mm 0 mps 713 mmHg 96%
    20:00 -1°C° 0 mm 0 mps 714 mmHg 95%
    21:00 -1°C° 0 mm 0 mps 714 mmHg 95%
    22:00 -2°C° 0 mm 0 mps 714 mmHg 95%
    23:00 -2°C° 0 mm 0 mps 715 mmHg 95%

    21 Enero, Lunes

    Tiempo Temperatura Precipitaciones Viento Presión Humedad
    00:00 -2°C° 0 mm 0 mps 715 mmHg 95%
    01:00 -2°C° 0 mm 0 mps 715 mmHg 95%
    02:00 -2°C° 0 mm 0 mps 715 mmHg 95%
    03:00 -2°C° 0 mm 0 mps 715 mmHg 95%
    04:00 -2°C° 0 mm 0 mps 715 mmHg 96%
    05:00 -2°C° 0 mm 0 mps 715 mmHg 96%
    06:00 -2°C° 0 mm 0 mps 715 mmHg 97%
    07:00 -2°C° 0 mm 0 mps 716 mmHg 97%
    08:00 -1°C° 0.1 mm 0 mps 716 mmHg 96%
    09:00 0°C° 0.1 mm 1 mps 716 mmHg 96%
    10:00 +1°C° 0.1 mm 1 mps 717 mmHg 95%
    11:00 +1°C° 0 mm 1 mps 717 mmHg 95%
    12:00 +2°C° 0 mm 1 mps 716 mmHg 95%
    13:00 +2°C° 0 mm 1 mps 716 mmHg 95%
    14:00 +2°C° 0.1 mm 1 mps 716 mmHg 95%
    15:00 +2°C° 0.1 mm 1 mps 716 mmHg 95%
    16:00 +1°C° 0.1 mm 1 mps 716 mmHg 96%
    17:00 +1°C° 0.1 mm 1 mps 716 mmHg 96%
    18:00 0°C° 0.1 mm 1 mps 716 mmHg 97%
    19:00 0°C° 0.1 mm 1 mps 716 mmHg 98%
    20:00 -1°C° 0.1 mm 1 mps 716 mmHg 98%
    21:00 -1°C° 0.1 mm 1 mps 716 mmHg 98%
    22:00 -1°C° 0.1 mm 1 mps 716 mmHg 98%
    23:00 -2°C° 0.1 mm 0 mps 715 mmHg 97%

    22 Enero, Martes

    Tiempo Temperatura Precipitaciones Viento Presión Humedad
    00:00 -3°C° 0.1 mm 0 mps 715 mmHg 97%
    01:00 -3°C° 0.1 mm 0 mps 714 mmHg 97%
    02:00 -3°C° 0.1 mm 0 mps 714 mmHg 97%
    03:00 -3°C° 0.1 mm 0 mps 713 mmHg 97%
    04:00 -2°C° 0.1 mm 1 mps 713 mmHg 97%
    05:00 -2°C° 0.1 mm 1 mps 712 mmHg 97%
    06:00 -2°C° 0.1 mm 1 mps 712 mmHg 97%
    07:00 -2°C° 0.1 mm 1 mps 712 mmHg 97%
    08:00 -1°C° 0.3 mm 1 mps 711 mmHg 96%
    09:00 -1°C° 0.3 mm 1 mps 711 mmHg 95%
    10:00 0°C° 0.3 mm 1 mps 711 mmHg 94%
    11:00 0°C° 0 mm 1 mps 710 mmHg 94%
    12:00 +1°C° 0 mm 1 mps 709 mmHg 94%
    13:00 +1°C° 0 mm 1 mps 708 mmHg 94%
    14:00 +1°C° 0 mm 1 mps 708 mmHg 95%
    15:00 +1°C° 0 mm 1 mps 707 mmHg 96%
    16:00 +1°C° 0 mm 1 mps 706 mmHg 96%
    17:00 +1°C° 0.1 mm 1 mps 706 mmHg 97%
    18:00 0°C° 0.1 mm 1 mps 705 mmHg 97%
    19:00 -1°C° 0.1 mm 0 mps 705 mmHg 98%
    20:00 -1°C° 0.7 mm 0 mps 705 mmHg 98%
    21:00 -1°C° 0.7 mm 0 mps 704 mmHg 98%
    22:00 -1°C° 0.7 mm 0 mps 704 mmHg 98%
    23:00 -1°C° 0.3 mm 0 mps 704 mmHg 97%

    23 Enero, Miércoles

    Tiempo Temperatura Precipitaciones Viento Presión Humedad
    00:00 0°C° 0.3 mm 1 mps 703 mmHg 97%
    01:00 0°C° 0.3 mm 1 mps 703 mmHg 97%
    02:00 +1°C° 0 mm 1 mps 703 mmHg 96%
    03:00 +1°C° 0 mm 1 mps 702 mmHg 96%
    04:00 +1°C° 0 mm 1 mps 702 mmHg 96%
    05:00 +1°C° 0 mm 1 mps 702 mmHg 96%
    06:00 +1°C° 0 mm 1 mps 702 mmHg 95%
    07:00 +1°C° 0 mm 1 mps 702 mmHg 95%
    08:00 +2°C° 0 mm 1 mps 702 mmHg 96%
    09:00 +3°C° 0 mm 1 mps 702 mmHg 98%
    10:00 +4°C° 0 mm 1 mps 703 mmHg 99%
    11:00 +4°C° 0 mm 1 mps 702 mmHg 99%
    12:00 +5°C° 0 mm 1 mps 702 mmHg 99%
    13:00 +5°C° 0 mm 1 mps 702 mmHg 99%
    14:00 +4°C° 0 mm 1 mps 702 mmHg 99%
    15:00 +4°C° 0 mm 1 mps 702 mmHg 99%
    16:00 +4°C° 0 mm 1 mps 702 mmHg 99%
    17:00 +3°C° 0 mm 1 mps 702 mmHg 98%
    18:00 +3°C° 0 mm 1 mps 702 mmHg 97%
    19:00 +2°C° 0 mm 1 mps 702 mmHg 96%
    20:00 +1°C° 0 mm 1 mps 702 mmHg 95%
    21:00 +1°C° 0 mm 1 mps 702 mmHg 94%
    22:00 0°C° 0 mm 1 mps 702 mmHg 94%
    23:00 0°C° 0 mm 1 mps 702 mmHg 93%
    Mostrar más